Location: ??
(35.4627°N, 139.3695°E)
Time: 08:09:57
(UTC+00:00)

Milstar 3 Cent rocket - Pass Details

Date: 25 November 2020
Orbit: 706 x 5147 km, 28.3° (Epoch: 17 January)

Event Time Altitude Azimuth Distance (km) Brightness Sun altitude
Exits shadow 20:37:03 - 259° (WSW) 3,453 4.8 -10.6°
Reaches altitude 10° 20:37:36 10° 258° (WSW) 3,286 4.7 -10.5°
Maximum altitude 20:45:55 61° 179° (S) 2,222 4.5 -8.9°
Drops below altitude 10° 21:04:19 10° 105° (ESE) 6,782 8.7 -5.4°
Sets 21:11:15 0° 103° (ESE) 8,467 9.7 -4.1°
